Showing default

OPS 9323 (IDSCS 10), 2650

Orbit data source: Space-Track

OPS 9323 (IDSCS 10), 2650 is a payload satellite owned by USAF SSD (US) in GEO that was launched on Wed, 18 Jan 1967 UTC via a TITAN IIIC launch vehicle from the Air Force Eastern Test Range (AFETR). Payload-class satellites include a variety of spacecraft equipped with specific instruments for various scientific and technological missions. These include communications satellites like Starlink; space stations such as the ISS; scientific satellites like the Hubble; Earth observation satellites from companies like Planet Labs, Umbra, and HawkEye 360; GPS; miniature CubeSats for education and research; and military/defense satellites.

Loading next visibility...
Identifier
2650, 1967-003C
Orbit
GEO
Last TLE update
1 day ago
Origin
Manufacturer
Philco-Ford WDL
Mission
Non-operational Defense Communications
Bus & Motor
IDCSP, Unknown motor
Mass
45 kg wet, 45 kg dry
Launch date (UTC)
1967-01-18 (58 years ago)
Launch vehicle
TITAN IIIC
Launch site
Air Force Eastern Test Range (AFETR)
Object type
Payload
Rocket body
Debris
Shape & HBR
Ico Poly, 0.9 m
Radar Cross Section
0.926 m², Medium (>0.1 m² and < 1m²)

Expand to show TLE details & history

TLE from 1 day ago
0 OPS 9323 (IDSCS 10)
1 02650U 67003C   25128.29439840 -.00000111  00000-0  00000-0 0  9990
2 02650   7.5349  48.3790 0033991  98.7244 100.7486  1.08222445136063
Epoch: 2025-05-08T07:03Z
Definitive object data (Epoch: 2025-05-08T07:03:56.021Z)
Latitude
-2.56529°
Longitude
-84.2675°
Altitude
33,720.666 km
Speed
3.152 km/s
True Right ascension
16h 32m 19s
True Declination
-2° 33' 45"
Sunlit
Object was in daylight at TLE epoch
Visualization TLE readout
Latitude
-5.05215°
Longitude
-62.14702°
Altitude
33,769.691 km
Speed
3.148 km/s
Apparent Right ascension
18h 23m 42s
Apparent Declination
-11° 37' 37"
Sunlit
Object is in daylight
Visualization observer readout
Local Sidereal Time
14:45:39
Azimuth
123.076° SE
Elevation
17.866°
Doppler factor
1
Orbital elements
Apogee altitude
33,832.645 km
Perigee altitude
33,560.211 km
Semi-major axis
40,074.565 km
Eccentricity
0.0033991
Inclination
7.5349°
RAAN
48.379°
Arg. of periapsis
98.7244°
True anomaly
101.13097°
Mean anomaly
100.7486°
Eccentric anomaly
100.93981°
Mean motion
0.27055 °/min
BSTAR
Unknown
Orbital period
1330.65 mins
Loading historical data...
2650 neighbors
Loading maneuver chart data...
Loading SW <> Apogee altitude chart data...
Loading historical data...
Loading historical data...
Loading historical data...
Loading historical data...
Loading historical data...
Loading historical data...
Loading historical data...

OPS 9323 (IDSCS 10) Visibility forecast

Observer location: undefined°, undefined°

Span
Click to sort rows by Start time (UTC) header in descending order
Start Az.
Max El. time (UTC)
Max El. Az.
Max El.
End time (UTC)
End Az.
1011 mins2025-05-09 06:36:47.813Z123.091° SE2025-05-09 06:36:47.813Z123.091° SE17.048°2025-05-09 23:27:47.813Z99.481° ESE
|